Iridium Next SV181

operational
NORAD ID: 56726 Int'l Des: 2023-068 Owner: IRIDS Country: US Constellation: Iridium NEXT
LEOCIRCULARPOLAR

About Iridium Next SV181

Description loading...

Live Position

Loading 3D Globe...

Upcoming Passes

Altitude History

Altitude vs Time

uPlot chart will show altitude changes over time

Two-Line Element Set

1 56726U 23068S 25303.14095686 .00000461 00000-0 13096-3 0 9990
2 56726 86.4523 152.9343 0001927 101.8073 258.3344 14.43320098129254
Epoch: Oct 30, 2025 • Age: 17 hours

Current Status

Altitude 751.1 km
Velocity 7.48 km/s
Sub-Earth Point -3.88°S, 19.61°W
Launch Date May 20, 2023
Age 2.4 years
Type communications

Technical Details

Classification Payload
Mass 860.00 kg
Dry Mass 700.00 kg
Total Mass 860.00 kg
Length 3.10 m
Diameter 1.50 m
Span 9.40 m
Shape Half Hex Prism+2 pan
Manufacturer NGISGA
Bus Type EliteBus
Phase Status In Orbit
Owner/State IRIDS/US

Large Constellations

Loading constellations...